User: anonymous   Login
Location: La Comballaz
(46.3780°N, 7.0817°E)
Time: 12:42:29
(UTC+00:00)
Language:

SPROUT - Orbit

View from above orbital plane
View from above orbital plane
View from above satellite
View from above satellite

Ground track
Ground track

The orbit data is extracted from the following two-line orbital elements,

1 39770U 14029E   22341.81233368  .00008476  00000-0  80821-3 0  9995
2 39770  97.9546 100.2704 0008013 229.9936 130.0587 14.93575500463516
Epoch (UTC): 07 December 2022 19:29:45
Eccentricity: 0.0008013
inclination: 97.9546°
perigee height: 581 km
apogee height: 592 km
right ascension of ascending node: 100.2704°
argument of perigee: 229.9936°
revolutions per day: 14.93575500
mean anomaly at epoch: 130.0587°
orbit number at epoch: 46351

The dashed part of the orbit path shows where the satellite is in the earth's shadow,  

DLR